SL-16 DEB, 22352

Orbit data source: Space-Track

SL-16 DEB, 22352 is space debris in LEO originally from a launch on Fri, 25 Dec 1992 UTC launched from the Tyuratam Missile And Space Complex (TTMTR). Debris objects in space refer to the collection of defunct objects orbiting the Earth. Examples of debris include non-operational satellites, rocket bodies, and fragments generated from explosions, collisions, or faulty payload assembly.

Loading next visibility...
Identifier
22352, 1992-093AR
Orbit
LEO
Country
Flag of CISCIS
Related business
Manufacturer
Unknown
Mission
Spacecraft
Bus & Motor
Unknown
Mass
Unknown
Launch date (UTC)
1992-12-25 (33 years ago)
Launch vehicle
Unknown
Launch site
Tyuratam Missile And Space Complex (TTMTR)
Object type
Payload
Rocket body
Debris
Shape & HBR
Unknown shape, 0.3 m
Radar Cross Section
Medium (>0.1 m² and <1 m²)

Expand to show TLE details & history
Last TLE update: 9 hours ago

TLE from 9 hours ago
0 SL-16 DEB
1 22352U 92093AR  26126.99511235 -.00000020  00000-0  17342-4 0  9993
2 22352  70.8914 320.8913 0076783 195.8887 278.4640 14.00729879703073
Epoch: 2026-05-06T23:52Z
TLE epoch observation values (Epoch: 2026-05-06T23:52:57.707Z)
Latitude
60.18067°
Longitude
-119.15885°
Altitude
893.165 km
Speed
7.415 km/s
True Right ascension
06h 55m 43s
True Declination
60° 02' 05"
Sunlit
Object was in daylight at epoch
Visualization orbit readout
Latitude
Unknown
Longitude
Unknown
Altitude
Unknown
Speed
Unknown
Apparent Right ascension
Unknown
Apparent Declination
Unknown
Sunlit
N/A
Visualization observer readout
Local Sidereal Time
17:20:22
Azimuth
Unknown
Elevation
Unknown
Doppler factor
Unknown
Orbital elements
Apogee altitude
945.019 km
Perigee altitude
833.417 km
Semi-major axis
7,267.355 km
Eccentricity
0.00768
Inclination
70.8914°
RAAN
320.8913°
Arg. of periapsis
195.8887°
True anomaly
277.59252°
Mean anomaly
278.464°
Eccentric anomaly
278.02838°
Mean motion
3.50331 °/min
Orbital period
102.76 mins
BSTAR
0.000017342
Loading maneuver chart data...
Computing Atmospheric mass density...
Loading historical data...
Loading historical data...
Loading historical data...
Loading historical data...
Loading historical data...
Loading historical data...
Loading historical data...

Documentation

Showing up to 5 results
|